Flag for France Weather past 2 weeks in Périgueux, France

50 °F


Feels Like: 44 °F
Forecast: 42 / 54 °F
Wind: 17 mph from Northwest

Location: Bergerac Airport

Current Time: Nov 28, 2015 at 5:44:22 AM

Latest Report: Nov 28, 2015 at 5:00 AM

Visibility: N/A

Pressure: 30.07 "Hg

Humidity: 88%

Dew point: 46 °F

Location of PérigueuxLocation

Historic Weather in Périgueux — Graph


Périgueux temperature yesterday

Maximum temperature yesterday: 52 °F (at 3:00 PM)
Minimum temperature yesterday: 30 °F (at 9:00 AM)
Average temperature yesterday: 41 °F

Past Weeks' High & Low Weather Summary

High64 °F (Nov 18, 2:00 PM)100% (Nov 13, 4:30 AM)30.57 "Hg (Nov 13, 4:30 AM)
Low25 °F (Nov 23, 2:00 AM)43% (Nov 22, 4:00 PM)29.77 "Hg (Nov 21, 1:00 AM)
Average48 °F89%30.21 "Hg
* Reported Nov 13 4:00 AM — Nov 28 4:30 AM, Périgueux, Weather by CustomWeather, © 2015

Note: Actual official high and low records may vary slightly from our data, if they occured in-between our weather recording intervals... More about our weather records


Périgueux weather history for previous 24 hours

Time TempWeatherWind HumidityBarometerVisibility
4:30 AM
Sat, Nov 28
50 °FLight rain. Low clouds.16 mph100%30.04 "HgN/A
4:00 AM50 °FLight rain. Low clouds.9 mph100%30.04 "Hg4 mi
3:30 AM50 °FLow clouds.3 mph94%30.04 "HgN/A
3:00 AM50 °FLow clouds.3 mph94%30.04 "HgN/A
2:30 AM48 °FLow clouds.6 mph100%30.04 "HgN/A
12:30 AM48 °FDrizzle. Mostly cloudy.3 mph94%30.04 "Hg4 mi
12:00 AM48 °FLight rain. Fog.2 mph94%30.04 "Hg1 mi
11:30 PM
Fri, Nov 27
48 °FOvercast.5 mph94%30.04 "Hg4 mi
11:00 PM48 °FDrizzle. Mostly cloudy.3 mph94%30.04 "Hg4 mi
10:30 PM48 °FOvercast.5 mph87%30.04 "HgN/A
10:00 PM48 °FMostly cloudy.7 mph87%30.07 "HgN/A
9:30 PM48 °FOvercast.1 mph82%30.07 "HgN/A
9:00 PM46 °FMostly cloudy.No wind82%30.07 "HgN/A
8:30 PM46 °FOvercast.No wind82%30.07 "HgN/A
8:00 PM46 °FMostly cloudy.No wind82%30.07 "HgN/A
7:30 PM46 °FOvercast.5 mph82%30.07 "HgN/A
7:00 PM46 °FOvercast.3 mph82%30.07 "HgN/A
6:30 PM46 °FOvercast.3 mph82%30.07 "HgN/A
6:00 PM46 °FOvercast.2 mph82%30.07 "HgN/A
5:30 PM46 °FOvercast.2 mph76%30.07 "HgN/A
5:00 PM48 °FPassing clouds.2 mph71%30.07 "HgN/A
4:30 PM50 °FPartly sunny.3 mph71%30.07 "HgN/A
4:00 PM50 °FPassing clouds.2 mph71%30.07 "HgN/A
3:30 PM52 °FSunny.3 mph62%30.07 "Hg10 mi
3:00 PM52 °FSunny.3 mph62%30.09 "Hg10 mi
2:30 PM50 °FPassing clouds.5 mph67%30.09 "HgN/A
2:00 PM48 °FSunny.1 mph82%30.09 "Hg10 mi
1:30 PM46 °FSunny.No wind87%30.12 "Hg10 mi
1:00 PM43 °FLight fog.No wind100%30.12 "Hg4 mi
12:30 PM41 °FFog.No wind100%30.12 "Hg0 mi
12:00 PM39 °FFog.1 mph100%30.15 "Hg0 mi
11:30 AM36 °FFog.2 mph100%30.15 "Hg0 mi
11:00 AM36 °FFog.No wind100%30.15 "Hg0 mi
10:30 AM34 °FFog.No wind100%30.15 "Hg0 mi
10:00 AM32 °FFog.No wind100%30.15 "Hg0 mi
9:30 AM32 °FIce fog.No wind93%30.15 "Hg0 mi
9:00 AM30 °FIce fog.No wind100%30.15 "Hg0 mi
7:30 AM32 °FIce fog.2 mph93%30.15 "Hg0 mi
7:00 AM32 °FIce fog.No wind100%30.15 "Hg0 mi
6:30 AM32 °FIce fog.No wind100%30.15 "Hg1 mi
6:00 AM32 °FIce fog.1 mph93%30.12 "Hg1 mi
5:30 AM32 °FIce fog.No wind100%30.12 "Hg1 mi
5:00 AM32 °FFog.No wind100%30.15 "Hg0 mi
Weather by CustomWeather, © 2015

See weather overviewHow to use our weather pages